STARLINK-6125, 57114

Orbit data source: Space-Track

STARLINK-6125, 57114 is a payload satellite owned by SpaceX/Seattle (US) in LEO that was launched on Fri, 23 Jun 2023 UTC via an FALCON 9 launch vehicle from the Air Force Eastern Test Range (AFETR). Payload-class satellites include a variety of spacecraft equipped with specific instruments for various scientific and technological missions. These include communications satellites like Starlink; space stations such as the ISS; scientific satellites like the Hubble; Earth observation satellites from companies like Planet Labs, Umbra, and HawkEye 360; GPS; miniature CubeSats for education and research; and military/defense satellites.

Loading next visibility...
Identifier
57114, 2023-090P
Orbit
LEO
Country
Flag of USUS
Related business
Manufacturer
SpaceX/Seattle
Mission
Operational Commercial Communications
Bus & Motor
STARLINK, Unknown motor
Mass
305 kg wet, ~290 kg dry
Launch date (UTC)
2023-06-23 (3 years ago)
Launch vehicle
FALCON 9
Launch site
Air Force Eastern Test Range (AFETR)
Object type
Payload
Rocket body
Debris
Shape & HBR
Box + 1 Pan, 10.1 m
Radar Cross Section
11.087 m², Large (>1 m²)

Expand to show TLE details & history
Last TLE update: 3 days ago

TLE from 3 days ago
0 STARLINK-6125
1 57114U 23090P   26170.75294143 -.00001357  00000-0 -39807-4 0  9992
2 57114  43.0044  64.9876 0001458 270.0664  90.0021 15.27570946165941
Epoch: 2026-06-19T18:04Z
TLE epoch observation values (Epoch: 2026-06-19T18:04:14.139Z)
Latitude
Longitude
-114.04871°
Altitude
482.852 km
Speed
7.626 km/s
True Right ascension
04h 19m 57s
True Declination
0° 00' 00"
Sunlit
Object was in daylight at epoch
Visualization orbit readout
Latitude
Unknown
Longitude
Unknown
Altitude
Unknown
Speed
Unknown
Apparent Right ascension
Unknown
Apparent Declination
Unknown
Sunlit
N/A
Visualization observer readout
Local Sidereal Time
21:33:03
Azimuth
Unknown
Elevation
Unknown
Doppler factor
Unknown
Orbital elements
Apogee altitude
486.021 km
Perigee altitude
484.02 km
Semi-major axis
6,863.158 km
Eccentricity
0.00015
Inclination
43.0044°
RAAN
64.9876°
Arg. of periapsis
270.0664°
True anomaly
90.01881°
Mean anomaly
90.0021°
Eccentric anomaly
90.01045°
Mean motion
3.81731 °/min
Orbital period
94.31 mins
BSTAR
-0.000039807
Loading maneuver chart data...
Computing Atmospheric mass density...
Loading historical data...
Loading historical data...
Loading historical data...
Loading historical data...
Loading historical data...
Loading historical data...
Loading historical data...

Documentation

Showing up to 5 results
|